| time (UTC) | temp F | wind direction | speed MPH | gust MPH | rain 1hr in | rain 24hr in | rain mn in | humidity % | barometer mb |
| 20260904091506 | 79 | 167 | 1.0 | 4.0 | 0.00 | 0.00 | 0.00 | 89 | 1005.0 |
| 20260904090006 | 79 | 143 | 2.0 | 6.0 | 0.00 | 0.00 | 0.00 | 89 | 1005.0 |
| 20260904084510 | 78 | 148 | 2.0 | 7.0 | 0.00 | 0.00 | 0.00 | 90 | 1005.0 |
| 20260904083003 | 78 | 148 | 3.0 | 7.0 | 0.00 | 0.00 | 0.00 | 90 | 1004.9 |
| 20260904081504 | 79 | 155 | 4.0 | 6.0 | 0.00 | 0.00 | 0.00 | 89 | 1004.9 |
| 20260904080100 | 79 | 130 | 4.0 | 7.0 | 0.00 | 0.00 | 0.00 | 88 | 1005.1 |
| 20260904074559 | 78 | 136 | 4.0 | 8.0 | 0.00 | 0.00 | 0.00 | 88 | 1005.1 |
| 20260904073058 | 78 | 141 | 1.0 | 4.0 | 0.00 | 0.00 | 0.00 | 88 | 1005.1 |
| 20260904071556 | 78 | 141 | 3.0 | 7.0 | 0.00 | 0.00 | 0.00 | 88 | 1005.1 |
| 20260904070059 | 79 | 158 | 5.0 | 8.0 | 0.00 | 0.00 | 0.00 | 87 | 1005.1 |
| 20260904064553 | 79 | 163 | 4.0 | 7.0 | 0.00 | 0.00 | 0.00 | 87 | 1005.2 |
| 20260904063058 | 79 | 144 | 2.0 | 7.0 | 0.00 | 0.00 | 0.00 | 87 | 1005.2 |
| 20260904061552 | 79 | 136 | 2.0 | 7.0 | 0.00 | 0.00 | 0.00 | 86 | 1005.3 |
| 20260904060051 | 79 | 131 | 3.0 | 8.0 | 0.00 | 0.00 | 0.00 | 86 | 1005.4 |
| 20260904054552 | 79 | 127 | 5.0 | 9.0 | 0.00 | 0.00 | 0.00 | 86 | 1005.4 |
| 20260904053048 | 79 | 137 | 2.0 | 8.0 | 0.00 | 0.00 | 0.00 | 86 | 1005.3 |
| 20260904051550 | 79 | 147 | 3.0 | 8.0 | 0.00 | 0.00 | 0.00 | 86 | 1005.3 |
| 20260904050045 | 79 | 105 | 4.0 | 7.0 | 0.00 | 0.00 | 0.00 | 85 | 1005.1 |
| 20260904044545 | 79 | 116 | 4.0 | 10.0 | 0.00 | 0.00 | 0.00 | 85 | 1005.3 |
| 20260904043050 | 79 | 101 | 4.0 | 9.0 | 0.00 | 0.00 | 0.00 | 84 | 1005.2 |
| 20260904041543 | 79 | 96 | 3.0 | 9.0 | 0.00 | 0.00 | 0.00 | 84 | 1005.2 |
| 20260904040045 | 80 | 82 | 6.0 | 11.0 | 0.00 | 0.00 | 0.00 | 84 | 1005.1 |
| 20260904034550 | 80 | 128 | 5.0 | 13.0 | 0.00 | 0.00 | 0.00 | 83 | 1005.1 |
| 20260904033040 | 80 | 124 | 5.0 | 11.0 | 0.00 | 0.00 | 0.00 | 82 | 1005.1 |
| 20260904031540 | 80 | 155 | 4.0 | 10.0 | 0.00 | 0.00 | 0.00 | 81 | 1005.1 |
| 20260904030040 | 81 | 119 | 4.0 | 10.0 | 0.00 | 0.00 | 0.00 | 80 | 1004.8 |
| 20260904024546 | 81 | 121 | 4.0 | 9.0 | 0.00 | 0.00 | 0.00 | 78 | 1004.8 |
| 20260904023045 | 82 | 117 | 4.0 | 7.0 | 0.00 | 0.00 | 0.00 | 77 | 1004.6 |
| 20260904021537 | 82 | 146 | 4.0 | 8.0 | 0.00 | 0.00 | 0.00 | 76 | 1004.4 |
| 20260904020037 | 83 | 140 | 3.0 | 9.0 | 0.00 | 0.00 | 0.00 | 76 | 1004.1 |
| 20260904014543 | 83 | 100 | 2.0 | 9.0 | 0.00 | 0.00 | 0.00 | 76 | 1003.8 |
| 20260904013039 | 84 | 152 | 6.0 | 10.0 | 0.00 | 0.00 | 0.00 | 77 | 1003.7 |
| 20260904011538 | 84 | 101 | 3.0 | 12.0 | 0.00 | 0.00 | 0.00 | 77 | 1003.4 |
| 20260904010041 | 84 | 120 | 5.0 | 10.0 | 0.00 | 0.00 | 0.00 | 77 | 1003.3 |
| 20260904004534 | 84 | 119 | 3.0 | 10.0 | 0.00 | 0.00 | 0.00 | 77 | 1003.4 |
| 20260904003035 | 84 | 73 | 4.0 | 13.0 | 0.00 | 0.00 | 0.00 | 76 | 1003.5 |
| 20260904001534 | 85 | 136 | 7.0 | 14.0 | 0.00 | 0.00 | 0.00 | 76 | 1003.5 |
| 20260904000032 | 85 | 130 | 9.0 | 19.0 | 0.00 | 0.00 | 0.00 | 75 | 1003.4 |
| 20260903234531 | 85 | 110 | 9.0 | 18.0 | 0.00 | 0.00 | 0.00 | 74 | 1003.4 |
| 20260903233030 | 86 | 136 | 11.0 | 19.0 | 0.00 | 0.00 | 0.00 | 74 | 1003.2 |
| 20260903231534 | 86 | 120 | 10.0 | 16.0 | 0.00 | 0.00 | 0.00 | 73 | 1003.2 |
| 20260903230035 | 86 | 82 | 11.0 | 17.0 | 0.00 | 0.00 | 0.00 | 71 | 1003.1 |
| 20260903224548 | 87 | 84 | 6.0 | 17.0 | 0.00 | 0.00 | 0.00 | 69 | 1003.0 |
| 20260903223029 | 88 | 136 | 9.0 | 16.0 | 0.00 | 0.00 | 0.00 | 68 | 1003.2 |
| 20260903221532 | 89 | 113 | 7.0 | 15.0 | 0.00 | 0.00 | 0.00 | 66 | 1003.2 |
| 20260903220027 | 91 | 130 | 9.0 | 17.0 | 0.00 | 0.00 | 0.00 | 60 | 1003.0 |
| 20260903214537 | 90 | 143 | 12.0 | 19.0 | 0.00 | 0.00 | 0.00 | 61 | 1002.9 |
| 20260903213029 | 91 | 129 | 11.0 | 17.0 | 0.00 | 0.00 | 0.00 | 61 | 1003.0 |
| 20260903211523 | 90 | 171 | 8.0 | 18.0 | 0.00 | 0.00 | 0.00 | 63 | 1003.0 |
| 20260903210022 | 91 | 138 | 9.0 | 18.0 | 0.00 | 0.00 | 0.00 | 62 | 1003.3 |
| 20260903204520 | 91 | 160 | 9.0 | 18.0 | 0.00 | 0.00 | 0.00 | 63 | 1003.5 |
| 20260903203018 | 91 | 154 | 11.0 | 16.0 | 0.00 | 0.00 | 0.00 | 62 | 1003.6 |
| 20260903201515 | 90 | 148 | 8.0 | 16.0 | 0.00 | 0.00 | 0.00 | 65 | 1003.8 |
| 20260903200012 | 90 | 113 | 9.0 | 0.0 | 0.00 | 0.00 | 0.00 | 66 | 1004.0 |
| 20260903194512 | 89 | 143 | 8.0 | 15.0 | 0.00 | 0.00 | 0.00 | 68 | 1004.1 |
| 20260903193004 | 88 | 138 | 8.0 | 17.0 | 0.00 | 0.00 | 0.00 | 71 | 1004.3 |
| 20260903191600 | 85 | 121 | 9.0 | 14.0 | 0.00 | 0.00 | 0.00 | 75 | 1004.8 |
| 20260903190059 | 85 | 141 | 8.0 | 15.0 | 0.00 | 0.00 | 0.00 | 77 | 1005.1 |
| 20260903184557 | 84 | 137 | 9.0 | 16.0 | 0.00 | 0.00 | 0.00 | 78 | 1005.5 |
| 20260903183056 | 83 | 121 | 7.0 | 16.0 | 0.00 | 0.00 | 0.00 | 81 | 1005.6 |
| 20260903181554 | 83 | 131 | 10.0 | 17.0 | 0.00 | 0.00 | 0.00 | 83 | 1005.9 |
| 20260903180053 | 82 | 138 | 8.0 | 16.0 | 0.00 | 0.00 | 0.00 | 84 | 1006.0 |
| 20260903174555 | 82 | 156 | 10.0 | 17.0 | 0.00 | 0.00 | 0.00 | 84 | 1006.2 |
| 20260903173052 | 83 | 150 | 9.0 | 16.0 | 0.00 | 0.00 | 0.00 | 82 | 1006.5 |
| 20260903171550 | 83 | 143 | 9.0 | 17.0 | 0.00 | 0.00 | 0.00 | 81 | 1006.6 |
| 20260903170049 | 83 | 61 | 10.0 | 17.0 | 0.00 | 0.00 | 0.00 | 82 | 1006.7 |
| 20260903164549 | 83 | 143 | 6.0 | 14.0 | 0.00 | 0.00 | 0.00 | 82 | 1006.5 |
| 20260903163044 | 83 | 153 | 7.0 | 16.0 | 0.00 | 0.00 | 0.00 | 82 | 1006.4 |
| 20260903161543 | 83 | 115 | 8.0 | 15.0 | 0.00 | 0.00 | 0.00 | 82 | 1006.3 |
| 20260903160042 | 83 | 141 | 7.0 | 15.0 | 0.00 | 0.00 | 0.00 | 83 | 1006.1 |
| 20260903154559 | 82 | 124 | 10.0 | 14.0 | 0.00 | 0.00 | 0.00 | 84 | 1006.0 |
| 20260903153036 | 82 | 132 | 8.0 | 14.0 | 0.00 | 0.00 | 0.00 | 85 | 1005.9 |
| 20260903151534 | 81 | 124 | 4.0 | 12.0 | 0.00 | 0.00 | 0.00 | 86 | 1005.8 |
| 20260903150033 | 81 | 164 | 6.0 | 10.0 | 0.00 | 0.00 | 0.00 | 86 | 1005.8 |
| 20260903144530 | 80 | 105 | 5.0 | 10.0 | 0.00 | 0.00 | 0.00 | 86 | 1005.6 |
| 20260903143028 | 80 | 127 | 6.0 | 10.0 | 0.00 | 0.00 | 0.00 | 87 | 1005.6 |
| 20260903141525 | 80 | 114 | 6.0 | 10.0 | 0.00 | 0.00 | 0.00 | 87 | 1005.4 |
| 20260903140023 | 80 | 110 | 4.0 | 9.0 | 0.00 | 0.00 | 0.00 | 87 | 1005.6 |
| 20260903134523 | 79 | 115 | 3.0 | 7.0 | 0.00 | 0.00 | 0.00 | 87 | 1005.6 |
| 20260903133022 | 79 | 137 | 2.0 | 5.0 | 0.00 | 0.00 | 0.00 | 87 | 1005.4 |
| 20260903131519 | 79 | 141 | 2.0 | 6.0 | 0.00 | 0.00 | 0.00 | 87 | 1005.4 |
| 20260903130015 | 0 | 0.0 | 0.0 | 0.00 | 0.00 | 0.00 | 1005.3 | ||
| 20260903124518 | 0 | 0.0 | 0.0 | 0.00 | 0.00 | 0.00 | 1005.2 | ||
| 20260903123007 | 0 | 0.0 | 0.0 | 0.00 | 0.00 | 0.00 | 1005.0 | ||
| 20260903121503 | 0 | 0.0 | 0.0 | 0.00 | 0.00 | 0.00 | 1004.9 | ||
| 20260903120106 | 0 | 0.0 | 0.0 | 0.00 | 0.00 | 0.00 | 1004.8 | ||
| 20260903114557 | 0 | 0.0 | 0.0 | 0.00 | 0.00 | 0.00 | 1004.7 | ||
| 20260903113051 | 0 | 0.0 | 0.0 | 0.00 | 0.00 | 0.00 | 1004.6 | ||
| 20260903111545 | 0 | 0.0 | 0.0 | 0.00 | 0.00 | 0.00 | 1004.6 | ||
| 20260903110047 | 0 | 0.0 | 0.0 | 0.00 | 0.00 | 0.00 | 1004.6 | ||
| 20260903104542 | 0 | 0.0 | 0.0 | 0.00 | 0.00 | 0.00 | 1004.6 | ||
| 20260903103035 | 0 | 0.0 | 0.0 | 0.00 | 0.00 | 0.00 | 1004.6 | ||
| 20260903101536 | 0 | 0.0 | 0.0 | 0.00 | 0.00 | 0.00 | 1004.6 | ||
| 20260903100024 | 0 | 0.0 | 0.0 | 0.00 | 0.00 | 0.00 | 1004.5 | ||
| 20260903094519 | 0 | 0.0 | 0.0 | 0.00 | 0.00 | 0.00 | 1004.5 | ||
| 20260903093015 | 0 | 0.0 | 0.0 | 0.00 | 0.00 | 0.00 | 1004.5 |